Tracking 18624 objects as of 29-April-2017
HD Live streaming from Space Station
objects crossing your sky now

OPS 8737

Track OPS 8737 now!
10-day predictions
OPS 8737 is classified as:


NORAD ID: 14690
Int'l Code: 1984-012A
Perigee: 418.0 km
Apogee: 1,752.6 km
Inclination: 63.3 °
Period: 106.8 minutes
Semi major axis: 7456 km
RCS: Unknown
Launch date: February 5, 1984
Source: United States (US)
Launch site: AIR FORCE WESTERN TEST RANGE (AFWTR)
Your satellite tracking list
Your tracking list is empty





NASA's NSSDC Master Catalog

Two Line Element Set (TLE):
1 14690U 84012A   15107.96030409 0.00005000  00000-0  53069-3 0    04
2 14690  63.3320  94.2704 0894942  45.8529 314.1471 13.48398437    05
Source of the keplerian elements: McCants